TimeHST,TemperatureF,Dew PointF,Humidity,Sea Level PressureIn,VisibilityMPH,Wind Direction,Wind SpeedMPH,Gust SpeedMPH,PrecipitationIn,Events,Conditions,WindDirDegrees,DateUTC
12:53 AM,73.0,64.9,76,30.09,10.0,ENE,16.1,-,N/A,,Overcast,70,2013-01-07 10:53:00
1:05 AM,73.4,64.4,73,30.09,10.0,ENE,17.3,-,N/A,,Overcast,70,2013-01-07 11:05:00
1:16 AM,73.4,64.4,73,30.09,10.0,ENE,15.0,-,N/A,,Overcast,70,2013-01-07 11:16:00
1:53 AM,73.0,64.9,76,30.07,10.0,ENE,13.8,-,N/A,,Overcast,70,2013-01-07 11:53:00
2:10 AM,73.4,64.4,73,30.08,10.0,ENE,13.8,-,N/A,,Overcast,70,2013-01-07 12:10:00
2:53 AM,73.0,66.0,79,30.06,10.0,ENE,18.4,-,0.00,,Overcast,60,2013-01-07 12:53:00
3:51 AM,73.4,66.2,78,30.06,9.0,ENE,16.1,-,0.00,,Overcast,60,2013-01-07 13:51:00
3:53 AM,73.0,66.0,79,30.06,9.0,ENE,15.0,-,0.00,,Overcast,60,2013-01-07 13:53:00
4:16 AM,71.6,66.2,83,30.06,10.0,ENE,15.0,-,0.00,,Overcast,60,2013-01-07 14:16:00
4:44 AM,71.6,64.4,78,30.07,5.0,East,13.8,21.9,0.01,Rain,Rain,80,2013-01-07 14:44:00
4:53 AM,70.0,66.0,87,30.06,4.0,Variable,5.8,18.4,0.05,Rain,Light Rain,0,2013-01-07 14:53:00
5:53 AM,72.0,66.0,81,30.07,8.0,ENE,16.1,25.3,0.01,Rain,Light Rain,60,2013-01-07 15:53:00
6:03 AM,71.6,66.2,83,30.08,3.0,ENE,13.8,33.4,0.05,Rain,Rain,60,2013-01-07 16:03:00
6:15 AM,71.6,66.2,83,30.08,10.0,ENE,18.4,27.6,0.05,,Overcast,70,2013-01-07 16:15:00
6:23 AM,71.6,66.2,83,30.08,10.0,ENE,20.7,-,0.05,,Overcast,70,2013-01-07 16:23:00
6:33 AM,71.6,66.2,83,30.08,10.0,ENE,21.9,26.5,0.05,,Overcast,70,2013-01-07 16:33:00
6:53 AM,72.0,66.0,81,30.08,10.0,ENE,18.4,-,0.05,,Overcast,60,2013-01-07 16:53:00
7:32 AM,71.6,64.4,78,30.10,10.0,ENE,21.9,-,0.02,,Overcast,70,2013-01-07 17:32:00
7:44 AM,71.6,64.4,78,30.11,10.0,ENE,17.3,-,0.02,,Overcast,70,2013-01-07 17:44:00
7:53 AM,72.0,64.9,78,30.11,10.0,ENE,19.6,-,0.02,,Mostly Cloudy,70,2013-01-07 17:53:00
8:53 AM,72.0,66.0,81,30.13,7.0,East,25.3,32.2,0.00,,Overcast,80,2013-01-07 18:53:00
9:08 AM,69.8,64.4,83,30.14,4.0,ENE,13.8,26.5,0.00,Rain,Light Rain,60,2013-01-07 19:08:00
9:53 AM,73.9,66.0,76,30.13,10.0,ENE,18.4,-,0.00,,Overcast,60,2013-01-07 19:53:00
10:37 AM,71.6,64.4,78,30.13,5.0,ENE,20.7,28.8,0.00,Rain,Light Rain,70,2013-01-07 20:37:00
10:53 AM,73.0,66.9,81,30.13,10.0,ENE,17.3,-,0.00,,Overcast,60,2013-01-07 20:53:00
11:33 AM,71.6,66.2,83,30.12,2.5,East,23.0,28.8,0.00,Rain,Heavy Rain,100,2013-01-07 21:33:00
11:37 AM,71.6,66.2,83,30.11,1.8,East,25.3,29.9,0.05,Rain,Rain,90,2013-01-07 21:37:00
11:46 AM,71.6,66.2,83,30.11,4.0,East,23.0,31.1,0.06,Rain,Light Rain,80,2013-01-07 21:46:00
11:53 AM,70.0,66.0,87,30.11,4.0,East,21.9,31.1,0.06,Rain,Light Rain,80,2013-01-07 21:53:00
12:53 PM,72.0,66.9,84,30.06,9.0,NE,12.7,-,0.00,,Overcast,40,2013-01-07 22:53:00
1:08 PM,73.4,66.2,78,30.06,10.0,ENE,17.3,25.3,N/A,,Overcast,60,2013-01-07 23:08:00
1:53 PM,73.9,66.0,76,30.03,10.0,ENE,18.4,-,N/A,,Overcast,60,2013-01-07 23:53:00
2:16 PM,73.4,66.2,78,30.03,10.0,ENE,17.3,-,0.00,,Overcast,60,2013-01-08 00:16:00
2:53 PM,73.9,66.9,79,30.02,10.0,NE,17.3,-,0.00,,Mostly Cloudy,50,2013-01-08 00:53:00
3:30 PM,73.4,66.2,78,30.03,10.0,ENE,19.6,-,N/A,,Overcast,60,2013-01-08 01:30:00
3:53 PM,73.0,66.9,81,30.03,10.0,NE,18.4,-,N/A,,Overcast,50,2013-01-08 01:53:00
4:09 PM,73.4,66.2,78,30.03,7.0,NE,19.6,-,N/A,,Overcast,50,2013-01-08 02:09:00
4:53 PM,73.0,66.0,79,30.03,10.0,NE,17.3,-,N/A,,Overcast,50,2013-01-08 02:53:00
5:25 PM,73.4,66.2,78,30.04,10.0,ENE,19.6,-,N/A,,Overcast,60,2013-01-08 03:25:00
5:41 PM,71.6,66.2,83,30.04,10.0,ENE,20.7,-,N/A,,Overcast,60,2013-01-08 03:41:00
5:53 PM,72.0,66.0,81,30.04,10.0,ENE,20.7,-,N/A,,Mostly Cloudy,60,2013-01-08 03:53:00
6:23 PM,71.6,66.2,83,30.05,10.0,ENE,19.6,-,N/A,,Mostly Cloudy,70,2013-01-08 04:23:00
6:53 PM,72.0,66.0,81,30.05,10.0,ENE,19.6,-,N/A,,Mostly Cloudy,60,2013-01-08 04:53:00
7:41 PM,71.6,66.2,83,30.06,10.0,ENE,21.9,-,N/A,,Mostly Cloudy,70,2013-01-08 05:41:00
7:53 PM,72.0,66.9,84,30.06,10.0,ENE,19.6,28.8,N/A,,Mostly Cloudy,70,2013-01-08 05:53:00
8:07 PM,69.8,66.2,88,30.07,3.0,ENE,19.6,-,0.00,Rain,Light Rain,70,2013-01-08 06:07:00
8:37 PM,69.8,66.2,88,30.07,10.0,ENE,11.5,-,0.01,,Overcast,60,2013-01-08 06:37:00
8:53 PM,72.0,66.9,84,30.06,10.0,ENE,19.6,-,0.01,,Overcast,60,2013-01-08 06:53:00
9:53 PM,71.1,66.9,87,30.06,10.0,ENE,20.7,-,0.00,,Mostly Cloudy,70,2013-01-08 07:53:00
10:53 PM,72.0,66.0,81,30.06,10.0,ENE,16.1,-,N/A,,Mostly Cloudy,60,2013-01-08 08:53:00
11:07 PM,69.8,66.2,88,30.07,5.0,East,19.6,31.1,0.00,Rain,Light Rain,80,2013-01-08 09:07:00
11:22 PM,71.6,66.2,83,30.07,10.0,ENE,13.8,-,0.01,,Overcast,70,2013-01-08 09:22:00
11:53 PM,72.0,66.0,81,30.06,10.0,East,18.4,-,0.01,,Mostly Cloudy,80,2013-01-08 09:53:00